[[{"header":{"parameterUnit":"m.s-1","parameterCategory":1,"la1":30.2991,"la2":30.254,"lo1":-89.0895,"lo2":-89.0444,"dy":0.0017,"dx":0.0017,"nx":28,"ny":28,"refTime":"2025-05-23T21:00:00:Z","depth":0,"parameterNumber":2,"parameterNumberName":"U-component_of_WINDS"},"data":[0,0,0,0,0,0,0,0,0,0,0,0,0,0,0,0,0,0,0,0,0,0,0,0,0,0,0,0,0,0,0,0,0,0,0,0,0,0,0,0,0,0,0,0,0,0,0,0,0,0,0,0,0,0,0,0,0,0,0.5162,0.5162,0,0.5172,0.5172,0.5172,0.5174,0.5174,0.5174,0.5174,0.5186,0.5186,0.5186,0,0,0,0,0,0,0,0,0,0,0,0,0,0.5146,0.5146,0.5162,0.5162,0.5162,0.5172,0.5172,0.5172,0.5174,0.5174,0.5174,0.5174,0.5185,0.5186,0.5186,0,0,0,0,0,0,0,0,0,0,0,0,0,0.5154,0.5146,0.5162,0.5164,0.5165,0.5172,0.5172,0.5172,0.5174,0.5174,0.5174,0.5174,0.5185,0.5186,0.5187,0.5193,0,0,0.5188,0.5189,0,0,0,0,0,0,0,0,0.5154,0.5155,0.5164,0.5164,0.5164,0.5172,0.5171,0.5179,0.5174,0.517,0.5174,0.5174,0.5181,0.5182,0.5184,0.5193,0.5194,0.5188,0.5189,0.5189,0.5189,0,0,0,0,0,0,0,0.5153,0.5154,0.5166,0.5164,0.5164,0.5165,0.5166,0.5172,0.5177,0.5171,0.5171,0.5172,0.5181,0.5184,0.5185,0.5194,0.5188,0.5189,0.5189,0.519,0.5209,0.5209,0,0,0,0,0,0,0.5152,0.5154,0.5166,0.5166,0.5159,0.5166,0.5167,0.5169,0.5176,0.5177,0.5172,0.5172,0.5183,0.5184,0.5185,0.5193,0.5189,0.519,0.519,0.5209,0.5209,0.5209,0,0,0,0,0,0,0.5152,0.5153,0.5165,0.516,0.5162,0.5166,0.5169,0.517,0.5172,0.5177,0.5178,0.5174,0.5183,0.5184,0.5191,0.5193,0.519,0.519,0.5209,0.5209,0.5209,0.5209,0,0,0,0,0,0,0.5151,0.5153,0.5155,0.516,0.5162,0.517,0.5169,0.517,0.5173,0.5173,0.5179,0.518,0.5183,0.519,0.5191,0.5194,0.5191,0.5209,0.5209,0.5209,0.5209,0.5209,0.521,0,0,0,0,0,0.5151,0.5155,0.5155,0.5157,0.5165,0.5171,0.5172,0.5174,0.5173,0.5176,0.5179,0.518,0.5193,0.5191,0.5192,0.5195,0.5209,0.5209,0.5209,0.5209,0.5209,0.521,0,0,0,0,0,0,0.515,0.5156,0.5156,0.5162,0.5166,0.5171,0.5174,0.5175,0.5179,0.5179,0.5183,0.5184,0.5191,0.5194,0.5191,0.5202,0.5201,0.5201,0.52,0.52,0.5201,0.52,0.5191,0,0,0,0,0,0.5151,0.5155,0.5159,0.5164,0.5166,0.517,0.5172,0.5174,0.5178,0.518,0.5184,0.5189,0.5194,0.5197,0.5202,0.5209,0.5211,0.5212,0.5213,0.5213,0.5214,0.5218,0.5218,0.5211,0.5211,0.5211,0,0,0.5152,0.5156,0.5158,0.5164,0.5167,0.5172,0.5171,0.5176,0.5179,0.5181,0.5187,0.519,0.5196,0.5203,0.5206,0.5205,0.5216,0.5213,0.5213,0.5214,0.5218,0.5219,0.522,0.5211,0.5211,0.5211,0,0,0.5157,0.516,0.5164,0.5167,0.5172,0.5174,0.5175,0.518,0.5182,0.5188,0.519,0.5194,0.5203,0.5207,0.521,0.5216,0.5217,0.5218,0.522,0.5224,0.5224,0.5225,0.5227,0.5228,0.5218,0.5218,0.5218,0,0.5158,0.5165,0.5167,0.5171,0.5174,0.5175,0.518,0.5183,0.5189,0.5191,0.5191,0.5201,0.5205,0.5213,0.5215,0.5217,0.5219,0.5217,0.5224,0.5225,0.5225,0.5228,0.5228,0.5218,0.5218,0.5218,0.5218,0,0.5166,0.517,0.5173,0.5179,0.5182,0.5187,0.519,0.5193,0.5194,0.5197,0.5203,0.5208,0.5214,0.5216,0.5217,0.5224,0.5223,0.5223,0.5222,0.5226,0.5228,0.5229,0.5218,0.5218,0.5218,0.5218,0,0,0.5171,0.5177,0.5178,0.5181,0.5186,0.519,0.5194,0.52,0.5202,0.5207,0.5211,0.5218,0.5218,0.5222,0.5224,0.5227,0.5232,0.5227,0.5227,0.5228,0.524,0.524,0.5241,0.5233,0.5233,0.5233,0.524,0,0.5176,0.5185,0.5186,0.5194,0.5198,0.5199,0.5203,0.5207,0.521,0.5214,0.5217,0.5222,0.5222,0.5224,0.5227,0.5231,0.5235,0.523,0.5237,0.5238,0.5236,0.5242,0.5242,0.5248,0.524,0.5241,0.5241,0,0.5184,0.5188,0.5195,0.52,0.5202,0.5205,0.521,0.5214,0.5219,0.5221,0.5224,0.5226,0.5232,0.523,0.5238,0.5235,0.5238,0.524,0.5241,0.5241,0.524,0.5243,0.525,0.5251,0.5242,0.5242,0.5242,0,0.5187,0.5194,0.5199,0.5202,0.5207,0.521,0.5212,0.5217,0.522,0.5224,0.5226,0.5232,0.5235,0.5239,0.5242,0.5241,0.525,0.5249,0.5252,0.5252,0.5254,0.5254,0.5262,0.5256,0.5256,0.5256,0.5256,0,0.5193,0.5197,0.5201,0.5204,0.5209,0.5212,0.5217,0.522,0.5224,0.5228,0.5229,0.5233,0.5237,0.5242,0.5245,0.5251,0.5252,0.5254,0.5255,0.5254,0.5254,0.5256,0.5256,0.5256,0.5256,0.5256,0.5256,0,0.5197,0.52,0.5206,0.521,0.5211,0.5215,0.5219,0.5223,0.5225,0.5231,0.5232,0.5236,0.5242,0.5245,0.5253,0.5255,0.5262,0.5262,0.526,0.526,0.5263,0.5263,0.5273,0.5274,0.5267,0.5267,0.5268,0,0.5201,0.5204,0.5209,0.5212,0.5214,0.5219,0.5222,0.5224,0.5227,0.5233,0.5236,0.5241,0.5246,0.5255,0.5259,0.5265,0.5265,0.5268,0.5266,0.5265,0.5266,0.5265,0.5266,0.5269,0.5269,0.5269,0.5269,0,0.5207,0.5208,0.5212,0.5217,0.522,0.5224,0.5228,0.523,0.5233,0.5237,0.5242,0.5246,0.5253,0.5259,0.5265,0.5268,0.5269,0.527,0.5271,0.527,0.5269,0.527,0.5261,0.5269,0.5269,0.5269,0.5269,0.5269,0.5212,0.5215,0.5218,0.5223,0.5226,0.5229,0.5233,0.5236,0.524,0.5246,0.5247,0.5253,0.5258,0.5266,0.5269,0.5274,0.5274,0.5275,0.5276,0.5276,0.5276,0.5268,0.5275,0.5275,0.5275,0.5275,0.5275,0,0.5218,0.5221,0.5225,0.523,0.5233,0.5233,0.5238,0.5241,0.5246,0.525,0.5254,0.526,0.5266,0.527,0.5276,0.5279,0.528,0.5281,0.5281,0.5281,0.5276,0.5275,0.528,0.528,0.528,0.528,0.528,0.528,0.5222,0.5227,0.5229,0.5236,0.5238,0.5243,0.5246,0.5249,0.5252,0.5259,0.5264,0.5266,0.5271,0.5277,0.5282,0.5283,0.5285,0.5286,0.5287,0.5282,0.5282,0.5281,0.528,0.5286,0.5286,0.5292,0.5292,0.5292]},{"header":{"parameterUnit":"m.s-1","parameterCategory":1,"la1":30.2991,"la2":30.254,"lo1":-89.0895,"lo2":-89.0444,"dy":0.0017,"dx":0.0017,"nx":28,"ny":28,"refTime":"2025-05-23T21:00:00:Z","depth":0,"parameterNumber":3,"parameterNumberName":"V-component_of_WINDS"},"data":[0,0,0,0,0,0,0,0,0,0,0,0,0,0,0,0,0,0,0,0,0,0,0,0,0,0,0,0,0,0,0,0,0,0,0,0,0,0,0,0,0,0,0,0,0,0,0,0,0,0,0,0,0,0,0,0,0,0,2.9844,2.9844,0,2.9852,2.9852,2.9852,2.9856,2.9856,2.9856,2.9856,2.9863,2.9863,2.9863,0,0,0,0,0,0,0,0,0,0,0,0,0,2.9833,2.9833,2.9844,2.9844,2.9844,2.9852,2.9852,2.9852,2.9856,2.9856,2.9856,2.9856,2.9863,2.9863,2.9863,0,0,0,0,0,0,0,0,0,0,0,0,0,2.9839,2.9833,2.9844,2.9847,2.9848,2.9852,2.9852,2.9852,2.9856,2.9856,2.9856,2.9856,2.9863,2.9863,2.9863,2.9864,0,0,2.9864,2.9864,0,0,0,0,0,0,0,0,2.9839,2.9839,2.9847,2.9847,2.9848,2.9853,2.985,2.9856,2.9856,2.9853,2.9856,2.9856,2.986,2.986,2.9861,2.9864,2.9865,2.9864,2.9864,2.9864,2.9864,0,0,0,0,0,0,0,2.9838,2.9839,2.9847,2.9847,2.9847,2.9848,2.9849,2.9851,2.9856,2.9853,2.9854,2.9854,2.986,2.9861,2.9861,2.9865,2.9864,2.9864,2.9864,2.9864,2.9869,2.9869,0,0,0,0,0,0,2.9837,2.9839,2.9847,2.9847,2.9843,2.9848,2.9849,2.9851,2.9856,2.9857,2.9854,2.9855,2.9861,2.9861,2.9862,2.9863,2.9864,2.9864,2.9865,2.9869,2.9869,2.9869,0,0,0,0,0,0,2.9837,2.9838,2.9847,2.9843,2.9844,2.9849,2.9851,2.9851,2.9853,2.9857,2.9858,2.9855,2.9861,2.9861,2.9863,2.9863,2.9865,2.9865,2.9869,2.9869,2.9869,2.9865,0,0,0,0,0,0,2.9837,2.9838,2.9838,2.9843,2.9844,2.9848,2.9851,2.9852,2.9853,2.9854,2.9858,2.9858,2.9861,2.9863,2.9864,2.9864,2.9865,2.9869,2.9869,2.9869,2.9866,2.9865,2.9865,0,0,0,0,0,2.9836,2.9837,2.9839,2.9839,2.9845,2.9848,2.9849,2.9852,2.9853,2.9854,2.9856,2.9858,2.9863,2.9863,2.9864,2.9864,2.9869,2.9869,2.9869,2.9866,2.9865,2.9865,0,0,0,0,0,0,2.9832,2.9838,2.9839,2.9842,2.9845,2.9849,2.985,2.9852,2.9854,2.9855,2.9858,2.9859,2.9861,2.9862,2.9862,2.9865,2.9866,2.9866,2.9864,2.9863,2.9863,2.9863,2.9865,0,0,0,0,0,2.9831,2.9834,2.9839,2.984,2.9842,2.9846,2.9847,2.9849,2.9852,2.9853,2.9856,2.9859,2.9861,2.9862,2.9864,2.9866,2.9867,2.9866,2.9866,2.9866,2.9866,2.9866,2.9866,2.9868,2.9868,2.9868,0,0,2.983,2.9834,2.9835,2.9839,2.9842,2.9844,2.9846,2.9849,2.985,2.9854,2.9856,2.9858,2.9861,2.9863,2.9864,2.9864,2.9865,2.9866,2.9865,2.9866,2.9866,2.9866,2.9866,2.9868,2.9868,2.9868,0,0,2.9829,2.9832,2.9833,2.9836,2.984,2.9842,2.9843,2.9847,2.9849,2.9851,2.9853,2.9855,2.9859,2.9861,2.9863,2.9862,2.9864,2.9863,2.9861,2.9862,2.9862,2.9862,2.9861,2.9861,2.9863,2.9863,2.9863,0,2.9827,2.983,2.9834,2.9836,2.9838,2.9841,2.9843,2.9845,2.9849,2.985,2.9851,2.9856,2.9858,2.986,2.986,2.9861,2.9862,2.9862,2.9861,2.9861,2.9861,2.9861,2.9861,2.9862,2.9862,2.9862,2.9862,0,2.9827,2.983,2.983,2.9835,2.9837,2.9839,2.9842,2.9844,2.9846,2.9848,2.985,2.9853,2.9856,2.9857,2.9859,2.9859,2.986,2.9861,2.9862,2.9861,2.9861,2.9861,2.9862,2.9862,2.9862,2.9862,0,0,2.9823,2.983,2.983,2.9832,2.9836,2.9838,2.984,2.9843,2.9844,2.9847,2.9849,2.9852,2.9853,2.9855,2.9857,2.9857,2.9857,2.9859,2.9859,2.9858,2.9857,2.9856,2.9856,2.9858,2.9858,2.9858,2.9857,0,2.9823,2.9826,2.983,2.9832,2.9834,2.9838,2.9839,2.9842,2.9844,2.9846,2.9849,2.9851,2.9852,2.9853,2.9854,2.9857,2.9856,2.9857,2.9859,2.9859,2.9858,2.9856,2.9855,2.9854,2.9857,2.9857,2.9857,0,2.9822,2.9825,2.9828,2.9832,2.9833,2.9835,2.9838,2.984,2.9843,2.9844,2.9846,2.9849,2.985,2.9851,2.9854,2.9854,2.9855,2.9856,2.9856,2.9857,2.9858,2.9856,2.9854,2.9854,2.9857,2.9857,2.9857,0,2.9819,2.9824,2.9826,2.9828,2.9833,2.9833,2.9836,2.9839,2.984,2.9843,2.9844,2.9847,2.9848,2.985,2.9853,2.9853,2.9855,2.9856,2.9856,2.9856,2.9856,2.9856,2.9854,2.9857,2.9857,2.9857,2.9857,0,2.9818,2.9819,2.9825,2.9826,2.9828,2.9831,2.9833,2.9835,2.9838,2.984,2.9843,2.9844,2.9848,2.9849,2.9851,2.9853,2.9854,2.9855,2.9855,2.9855,2.9854,2.9855,2.9855,2.9857,2.9857,2.9857,2.9857,0,2.9815,2.9818,2.9821,2.9825,2.9827,2.9828,2.9832,2.9833,2.9835,2.9837,2.9838,2.9842,2.9844,2.9847,2.985,2.9852,2.9853,2.9854,2.9852,2.9852,2.9852,2.9852,2.985,2.985,2.9853,2.9853,2.9853,0,2.9814,2.9815,2.982,2.9821,2.9823,2.9826,2.9827,2.9831,2.9833,2.9836,2.9837,2.9839,2.9842,2.9845,2.9848,2.985,2.9851,2.985,2.9851,2.9851,2.9851,2.9851,2.9851,2.985,2.985,2.985,2.985,0,2.9811,2.9813,2.9816,2.9819,2.9821,2.9823,2.9826,2.9827,2.9831,2.9833,2.9835,2.9837,2.984,2.9843,2.9845,2.9847,2.9849,2.985,2.985,2.9849,2.9848,2.9848,2.9851,2.985,2.985,2.985,2.985,2.985,2.9809,2.981,2.9814,2.9817,2.9819,2.9822,2.9823,2.9826,2.9828,2.9831,2.9833,2.9836,2.9838,2.9842,2.9844,2.9846,2.9847,2.9847,2.9847,2.9847,2.9846,2.9847,2.9846,2.9846,2.9846,2.9846,2.9846,0,2.9807,2.9809,2.9812,2.9816,2.9818,2.982,2.9823,2.9824,2.9827,2.9829,2.9831,2.9834,2.9837,2.984,2.9842,2.9843,2.9844,2.9843,2.9843,2.9844,2.9845,2.9845,2.9843,2.9843,2.9843,2.9843,2.9843,2.9843,2.9806,2.9808,2.981,2.9814,2.9816,2.9819,2.982,2.9823,2.9825,2.9828,2.983,2.9832,2.9835,2.9838,2.984,2.984,2.9841,2.984,2.9842,2.9843,2.9844,2.9844,2.9844,2.9841,2.9841,2.984,2.984,2.984]}]]